DELTA 1 DEB, 42082

Orbit data source: Space-Track

DELTA 1 DEB, 42082 is space debris in SSO originally from a launch on Sun, 15 Dec 1968 UTC launched from the Air Force Western Test Range (AFWTR). Debris objects in space refer to the collection of defunct objects orbiting the Earth. Examples of debris include non-operational satellites, rocket bodies, and fragments generated from explosions, collisions, or faulty payload assembly.

Loading next visibility...
Identifier
42082, 1968-114J
Orbit
SSO
Country
Flag of USUS
Related business
Manufacturer
Aerojet
Mission
Spacecraft
Bus & Motor
Unknown
Mass
Unknown
Launch date (UTC)
1968-12-15 (58 years ago)
Launch vehicle
Unknown
Launch site
Air Force Western Test Range (AFWTR)
Object type
Payload
Rocket body
Debris
Shape & HBR
Unknown shape, 0.2 m
Radar Cross Section
Medium (>0.1 m² and <1 m²)

Expand to show TLE details & history
Last TLE update: 3 days ago

TLE from 3 days ago
0 DELTA 1 DEB
1 42082U 68114J   26170.10359353  .00000080  00000-0  89114-3 0  9995
2 42082 101.9717 118.7311 0086797 307.0490  64.6337 12.42830616570651
Epoch: 2026-06-19T02:29Z
TLE epoch observation values (Epoch: 2026-06-19T02:29:10.480Z)
Latitude
12.27213°
Longitude
171.46939°
Altitude
1,467.642 km
Speed
7.143 km/s
True Right ascension
07h 44m 24s
True Declination
12° 12' 26"
Sunlit
Object was in daylight at epoch
Visualization orbit readout
Latitude
Unknown
Longitude
Unknown
Altitude
Unknown
Speed
Unknown
Apparent Right ascension
Unknown
Apparent Declination
Unknown
Sunlit
N/A
Visualization observer readout
Local Sidereal Time
21:52:17
Azimuth
Unknown
Elevation
Unknown
Doppler factor
Unknown
Orbital elements
Apogee altitude
1,560.508 km
Perigee altitude
1,423.884 km
Semi-major axis
7,870.333 km
Eccentricity
0.00868
Inclination
101.9717°
RAAN
118.7311°
Arg. of periapsis
307.049°
True anomaly
65.53659°
Mean anomaly
64.6337°
Eccentric anomaly
65.08473°
Mean motion
3.10852 °/min
Orbital period
115.81 mins
BSTAR
0.00089114
Loading maneuver chart data...
Computing Atmospheric mass density...
Loading historical data...
Loading historical data...
Loading historical data...
Loading historical data...
Loading historical data...
Loading historical data...
Loading historical data...

Documentation

Showing up to 5 results
|